World > North America > United States > Mississippi

Coles Creek, Mississippi Regional Weather

Lat: 33.87N, Lon: 89.46W
Wx Zone: MSZ022Web Search

Ads allow us to feed your daily addiction for the world's greatest weather information. We're determined to offer quality sponsors, in the least annoying way possible.

Feedback


°F Click to change Coles Creek hourly weather to Imperial units.Click to change Coles Creek hourly weather to Metric units. °C
Coles Creek Weather Map
UTC Time: 5/17/2021, 15:40
Your Time:

Coles Creek, MS Regional Weather

Expires:202105171600;;261148
ASUS44 KJAN 171510
RWRMS 

MISSISSIPPI HOURLY WEATHER ROUNDUP
NATIONAL WEATHER SERVICE JACKSON MS
1000 AM CDT MON MAY 17 2021

NOTE: "FAIR: INDICATES FEW OR NO CLOUDS BELOW 12,000 FEET WITH NO
SIGNIFICANT WEATHER AND/OR OBSTRUCTIONS TO VISIBILITY.


MSZ003>006-009-014>017-022>024-029>033-037>039-171600-
NORTHEAST MISSISSIPPI
  
CITY           SKY/WX    TMP DP  RH WIND       PRES   REMARKS
ABERDEEN       FAIR      72  61  68 SE9       30.15F                  
COLUMBUS AFB   MOSUNNY   70  60  71 SE12      30.14S                  
CORINTH        MOSUNNY   68  57  68 SE6       30.13F                  
GOLDN TRIANGLE MOSUNNY   71  62  73 SE10      30.14F                  
STARKVILLE     FAIR      70  59  68 SE8       30.14S                  
TUPELO         MOSUNNY   72  61  68 S7        30.13S                  
$$


SKY/WX - Weather  TMP - Temperature  DP - Dew Point  RH - Relative Humidity
WIND - Wind Direction/Speed PRES - Barometric Pressure VSB - Visibility
WCI - Wind Chill Index E13G22 Wind - East Wind 13 mph/Gusts of 22 mph